Printer-friendly version
Follow the MPC on Twitter Follow the MPC on Facebook The MPC blog
Minor Planet Center

MPEC 2010-B08 : 2010 BQ

The following Minor Planet Electronic Circular may be linked-to from your own Web pages, but must not otherwise be redistributed electronically.

A form allowing access to any MPEC is at the bottom of this page.


Read MPEC 2010-B07 Read MPEC 2010-B09


M.P.E.C. 2010-B08                                Issued 2010 Jan. 18, 23:25 UT

     The Minor Planet Electronic Circulars contain information on unusual
         minor planets and routine data on comets.  They are published
   on behalf of Commission 20 of the International Astronomical Union by the
          Minor Planet Center, Smithsonian Astrophysical Observatory,
                          Cambridge, MA 02138, U.S.A.

             Prepared using the Tamkin Foundation Computer Network

                              MPC@CFA.HARVARD.EDU
          URL http://www.cfa.harvard.edu/iau/mpc.html  ISSN 1523-6714

                                    2010 BQ

Observations:
     K10B00Q  C2010 01 16.34000 10 56 17.26 +08 52 15.9          17.7   EB008704
     K10B00Q  C2010 01 16.35246 10 56 10.52 +08 49 51.2          17.8   EB008704
     K10B00Q  C2010 01 16.36539 10 56 03.54 +08 47 20.7          17.8   EB008704
     K10B00Q  C2010 01 16.37800 10 55 56.70 +08 44 54.0          18.0   EB008704
     K10B00Q  C2010 01 16.39049 10 55 49.91 +08 42 28.6          18.0   EB008704
     K10B00Q* C2010 01 17.39110 10 47 05.78 +05 28 22.7          18.0   EB008704
     K10B00Q  C2010 01 17.40376 10 46 59.10 +05 25 57.2          19.4   EB008704
     K10B00Q  C2010 01 17.41641 10 46 52.18 +05 23 29.7          18.3   EB008704
     K10B00Q  C2010 01 18.73855 10 35 28.43 +01 11 19.6          17.6 C EB008E16
     K10B00Q  C2010 01 18.74455 10 35 25.25 +01 10 11.5          17.6 C EB008E16
     K10B00Q KC2010 01 18.91447 10 34 01.34 +00 37 11.7          17.8 R EB008A13
     K10B00Q KC2010 01 18.91682 10 34 00.08 +00 36 43.3          18.2 R EB008A13
     K10B00Q KC2010 01 18.91798 10 33 59.47 +00 36 30.8          17.9 R EB008A13
     K10B00Q KC2010 01 18.92126 10 33 57.74 +00 35 53.5          18.2 R EB008143
     K10B00Q KC2010 01 18.92835 10 33 54.07 +00 34 33.7          18.1 R EB008143
     K10B00Q KC2010 01 18.93570 10 33 50.30 +00 33 10.3          18.1 R EB008A13
     K10B00Q  C2010 01 18.95519 10 33 40.05 +00 29 31.9          18.2 V EB008595
     K10B00Q  C2010 01 18.95771 10 33 38.70 +00 29 03.8          17.9 V EB008595
     K10B00Q  C2010 01 18.96024 10 33 37.42 +00 28 34.5          17.8 V EB008595

Observer details:
143 Gnosca.  Observer S. Sposetti.  0.40-m f/4 reflector + CCD.
595 Farra d'Isonzo.  Observers L. Bittesini, F. Fabris, E. Pettarin, F. Piani.
    Measurers F. Fabris, E. Pettarin.  0.40-m f/4.5 reflector + CCD.
704 Lincoln Laboratory ETS, New Mexico.  Observers M. Blythe, G. Spitz,
    R. Brungard, J. Paige, P. Festler.  1.0-m f/2.15 reflector + CCD.
A13 Observatoire Naef, Marly.  Observer P. Kocher.  0.5-m f/3.3 Hypergraph
    + CCD.
E16 Grove Creek Observatory, Trunkey.  Observers P. Camilleri, E. Guido,
    J. Jaeger, E. Prosperi, G. Sostero, W. Vollmann.  Measurer P. Camilleri.
    0.35-m f/6 reflector + CCD.

Orbital elements:
2010 BQ                                                  Earth MOID = 0.1284 AU
Epoch 2010 Jan. 4.0 TT = JDT 2455200.5                  MPC
M   4.10191              (2000.0)            P               Q
n   0.25950180     Peri.  148.82230     -0.12228471     -0.85103799
a   2.4343095      Node   303.03833     +0.73796207     +0.26609472
e   0.5642340      Incl.   37.52918     +0.66367043     -0.45268966
P   3.80           H   19.9           G   0.15           U   8
Residuals in seconds of arc
100116 704  0.7-  0.3-    100117 704  0.7-  0.0     100118 143  0.4-  0.1-
100116 704  0.7-  0.1-    100118 E16  1.9-  0.7-    100118 A13  0.2-  0.4-
100116 704  0.4-  0.1-    100118 E16  2.1-  0.8-    100118 595  0.2-  0.3+
100116 704  0.4-  0.1-    100118 A13  0.8+  1.7+    100118 595  0.8-  0.6+
100116 704  0.6-  0.1-    100118 A13  0.1+  0.2-    100118 595  0.2-  0.2-
100117 704  0.9-  0.6-    100118 A13  0.1-  0.4+
100117 704  1.0+  0.8+    100118 143  0.4-  0.2-

Ephemeris:
2010 BQ                  a,e,i = 2.43, 0.56, 38                  q = 1.0608
Date    TT    R. A. (2000) Decl.     Delta      r     Elong.  Phase     V
2010 01 14    11 16.91   +16 21.5    0.183    1.108   129.1    43.5    18.1
2010 01 24    09 53.03   -13 40.3    0.205    1.150   140.4    33.1    18.1
2010 02 03    08 50.71   -30 01.0    0.288    1.201   133.2    36.7    19.1
2010 02 13    08 12.75   -36 07.1    0.396    1.260   125.8    39.5    20.0
2010 02 23    07 52.86   -37 57.2    0.513    1.325   120.5    40.1    20.6
2010 03 05    07 45.05   -38 02.8    0.634    1.394   116.4    39.6    21.2
2010 03 15    07 45.26   -37 23.6    0.756    1.467   113.1    38.6    21.7

Timothy B. Spahr             (C) Copyright 2010 MPC           M.P.E.C. 2010-B08

Read MPEC 2010-B07 Read MPEC 2010-B09


MPEC number:

Enter an MPEC number in one of the following forms:

  • 1997-B01 (the full form)
  • J97B01 (the packed version of the full form)
  • B01 (the abbreviated form)

Valid HTML 4.01!